DLH7T EDDM-EDDB

Flight info

Callsign DLH7T
Flight time 0h 45m
Altitude 28000
Route AKINI1N AKINI Y104 MAMOR L132 RUDNO T203 TIVDA DCT ETVIS DCT NAVEK DCT GAVLI T203 ATGUP
Aircraft A320/M-SDE3FGHIRWY/LB1

Departure

Time 2026-05-06 21:19
Airport Munich Airport (EDDM)

Arrival

Time 2026-05-06 22:05
Airport Berlin Brandenburg Airport (EDDB)
Time Latitude Longitude Altitude Speed Heading
2026-05-06 20:41 48.35730 11.79688 1486 ft 0 kts 83°
2026-05-06 21:07 48.35730 11.79686 1485 ft 2 kts 83°
2026-05-06 21:07 48.35727 11.79649 1475 ft 4 kts 83°
2026-05-06 21:07 48.35724 11.79611 1482 ft 2 kts 83°
2026-05-06 21:08 48.35720 11.79578 1482 ft 4 kts 63°
2026-05-06 21:08 48.35704 11.79551 1471 ft 4 kts 11°
2026-05-06 21:08 48.35679 11.79551 1475 ft 4 kts 353°
2026-05-06 21:08 48.35673 11.79552 1471 ft 0 kts 353°
2026-05-06 21:12 48.35674 11.79552 1471 ft 1 kts 353°
2026-05-06 21:12 48.35704 11.79546 1471 ft 8 kts 353°
2026-05-06 21:12 48.35783 11.79533 1485 ft 14 kts 353°
2026-05-06 21:12 48.35877 11.79517 1483 ft 13 kts 353°
2026-05-06 21:13 48.35959 11.79503 1474 ft 11 kts 353°
2026-05-06 21:13 48.36028 11.79490 1478 ft 9 kts 353°
2026-05-06 21:13 48.36099 11.79502 1474 ft 14 kts 42°
2026-05-06 21:13 48.36115 11.79607 1485 ft 18 kts 84°
2026-05-06 21:14 48.36132 11.79828 1483 ft 22 kts 83°
2026-05-06 21:14 48.36149 11.80047 1485 ft 20 kts 83°
2026-05-06 21:14 48.36165 11.80252 1477 ft 20 kts 83°
2026-05-06 21:14 48.36180 11.80448 1476 ft 18 kts 83°
2026-05-06 21:15 48.36194 11.80630 1478 ft 16 kts 83°
2026-05-06 21:15 48.36207 11.80793 1485 ft 15 kts 84°
2026-05-06 21:15 48.36218 11.80939 1485 ft 13 kts 83°
2026-05-06 21:15 48.36229 11.81070 1485 ft 12 kts 83°
2026-05-06 21:16 48.36237 11.81186 1473 ft 13 kts 85°
2026-05-06 21:16 48.36252 11.81394 1476 ft 25 kts 84°
2026-05-06 21:16 48.36271 11.81644 1485 ft 23 kts 83°
2026-05-06 21:16 48.36289 11.81874 1485 ft 17 kts 83°
2026-05-06 21:17 48.36352 11.81977 1483 ft 13 kts 37°
2026-05-06 21:17 48.36430 11.82006 1485 ft 11 kts 352°
2026-05-06 21:17 48.36501 11.81993 1485 ft 10 kts 353°
2026-05-06 21:17 48.36561 11.81983 1485 ft 8 kts 353°
2026-05-06 21:18 48.36632 11.81971 1478 ft 12 kts 353°
2026-05-06 21:18 48.36672 11.81895 1480 ft 11 kts 267°
2026-05-06 21:18 48.36670 11.81864 1480 ft 2 kts 263°
2026-05-06 21:18 48.36659 11.81720 1481 ft 42 kts 263°
2026-05-06 21:19 48.36597 11.80923 1475 ft 108 kts 263°
2026-05-06 21:19 48.36490 11.79542 1489 ft 156 kts 264°
2026-05-06 21:19 48.36375 11.77895 2113 ft 156 kts 264°
2026-05-06 21:19 48.36254 11.76283 2919 ft 157 kts 264°
2026-05-06 21:20 48.36120 11.74563 3292 ft 176 kts 265°
2026-05-06 21:20 48.35969 11.72616 3570 ft 200 kts 265°
2026-05-06 21:20 48.35812 11.70484 4251 ft 208 kts 268°
2026-05-06 21:20 48.36046 11.68307 5060 ft 213 kts 292°
2026-05-06 21:21 48.36910 11.66482 5928 ft 220 kts 315°
2026-05-06 21:21 48.38288 11.65364 6738 ft 234 kts 339°
2026-05-06 21:21 48.39947 11.64821 7229 ft 256 kts 343°
2026-05-06 21:21 48.41805 11.64649 7697 ft 284 kts
2026-05-06 21:22 48.43654 11.65881 8404 ft 302 kts 37°
2026-05-06 21:22 48.45166 11.68137 9194 ft 309 kts 45°
2026-05-06 21:22 48.46643 11.70529 10007 ft 315 kts 47°
2026-05-06 21:22 48.48129 11.72981 10777 ft 319 kts 47°
2026-05-06 21:23 48.49631 11.75470 11588 ft 322 kts 47°
2026-05-06 21:23 48.51148 11.77980 12393 ft 325 kts 47°
2026-05-06 21:23 48.52682 11.80504 13193 ft 328 kts 47°
2026-05-06 21:23 48.54237 11.83053 13947 ft 331 kts 47°
2026-05-06 21:24 48.55906 11.85791 14689 ft 335 kts 47°
2026-05-06 21:24 48.57387 11.88221 15332 ft 338 kts 48°
2026-05-06 21:24 48.58989 11.90843 16023 ft 341 kts 48°
2026-05-06 21:24 48.60604 11.93488 16712 ft 344 kts 49°
2026-05-06 21:25 48.62232 11.96157 17409 ft 347 kts 49°
2026-05-06 21:25 48.63875 11.98861 18091 ft 350 kts 50°
2026-05-06 21:25 48.65527 12.01587 18683 ft 353 kts 50°
2026-05-06 21:25 48.67191 12.04333 19284 ft 355 kts 50°
2026-05-06 21:26 48.68892 12.07070 19883 ft 358 kts 45°
2026-05-06 21:26 48.70863 12.09405 20470 ft 362 kts 33°
2026-05-06 21:26 48.73113 12.11149 21050 ft 365 kts 25°
2026-05-06 21:26 48.75438 12.12724 21626 ft 368 kts 25°
2026-05-06 21:27 48.77821 12.14382 21775 ft 384 kts 26°
2026-05-06 21:27 48.80286 12.16152 21914 ft 399 kts 26°
2026-05-06 21:27 48.82819 12.18004 22197 ft 408 kts 27°
2026-05-06 21:27 48.85390 12.19891 22661 ft 413 kts 27°
2026-05-06 21:28 48.87990 12.21791 23178 ft 415 kts 27°
2026-05-06 21:28 48.90605 12.23682 23649 ft 418 kts 26°
2026-05-06 21:28 48.93256 12.25562 24065 ft 421 kts 26°
2026-05-06 21:28 48.95924 12.27429 24469 ft 424 kts 25°
2026-05-06 21:29 48.98611 12.29297 24863 ft 427 kts 25°
2026-05-06 21:29 49.01323 12.31184 25262 ft 429 kts 25°
2026-05-06 21:29 49.04040 12.33087 25680 ft 432 kts 25°
2026-05-06 21:29 49.06775 12.35013 26089 ft 434 kts 26°
2026-05-06 21:30 49.09524 12.36963 26462 ft 437 kts 26°
2026-05-06 21:30 49.11386 12.38288 26720 ft 438 kts 26°
2026-05-06 21:30 49.15059 12.40907 27213 ft 442 kts 26°
2026-05-06 21:30 49.17857 12.42903 27582 ft 445 kts 26°
2026-05-06 21:31 49.20665 12.44909 27824 ft 447 kts 26°
2026-05-06 21:31 49.23451 12.46899 27864 ft 433 kts 26°
2026-05-06 21:31 49.26145 12.48818 27864 ft 422 kts 26°
2026-05-06 21:31 49.28797 12.50708 27863 ft 419 kts 26°
2026-05-06 21:32 49.31440 12.52593 27861 ft 419 kts 26°
2026-05-06 21:32 49.36342 12.57291 27861 ft 416 kts 39°
2026-05-06 21:32 49.38655 12.59964 27856 ft 416 kts 39°
2026-05-06 21:33 49.40972 12.62633 27854 ft 416 kts 39°
2026-05-06 21:33 49.43323 12.65235 27856 ft 418 kts 34°
2026-05-06 21:33 49.45887 12.67345 27855 ft 419 kts 27°
2026-05-06 21:33 49.48522 12.69273 27847 ft 420 kts 27°
2026-05-06 21:34 49.51155 12.71210 27845 ft 420 kts 27°
2026-05-06 21:34 49.53790 12.73151 27840 ft 420 kts 27°
2026-05-06 21:34 49.56424 12.75094 27836 ft 420 kts 27°
2026-05-06 21:34 49.59058 12.77045 27832 ft 420 kts 27°
2026-05-06 21:35 49.61692 12.79004 27825 ft 421 kts 27°
2026-05-06 21:35 49.64330 12.80963 27823 ft 421 kts 26°
2026-05-06 21:35 49.67063 12.82601 27824 ft 422 kts 18°
2026-05-06 21:35 49.69861 12.83999 27820 ft 423 kts 18°
2026-05-06 21:36 49.72657 12.85411 27819 ft 423 kts 19°
2026-05-06 21:36 49.75453 12.86830 27815 ft 423 kts 19°
2026-05-06 21:36 49.78255 12.88260 27817 ft 424 kts 19°
2026-05-06 21:36 49.81055 12.89696 27819 ft 424 kts 19°
2026-05-06 21:37 49.83858 12.91133 27819 ft 425 kts 19°
2026-05-06 21:37 49.86669 12.92571 27817 ft 425 kts 19°
2026-05-06 21:37 49.89478 12.94006 27817 ft 426 kts 18°
2026-05-06 21:37 49.92292 12.95445 27816 ft 426 kts 18°
2026-05-06 21:38 49.95107 12.96885 27818 ft 426 kts 18°
2026-05-06 21:38 49.97925 12.98331 27821 ft 426 kts 18°
2026-05-06 21:38 50.00745 12.99782 27822 ft 427 kts 18°
2026-05-06 21:38 50.03565 13.01238 27821 ft 427 kts 18°
2026-05-06 21:39 50.06386 13.02695 27823 ft 427 kts 18°
2026-05-06 21:39 50.09211 13.04153 27825 ft 428 kts 18°
2026-05-06 21:39 50.12034 13.05614 27826 ft 428 kts 18°
2026-05-06 21:39 50.14864 13.07078 27826 ft 428 kts 18°
2026-05-06 21:40 50.17693 13.08541 27825 ft 429 kts 18°
2026-05-06 21:40 50.20521 13.10011 27829 ft 429 kts 18°
2026-05-06 21:40 50.23353 13.11486 27823 ft 429 kts 18°
2026-05-06 21:40 50.26191 13.12963 27823 ft 430 kts 18°
2026-05-06 21:41 50.29028 13.14438 27823 ft 430 kts 18°
2026-05-06 21:41 50.31870 13.15917 27823 ft 430 kts 18°
2026-05-06 21:41 50.34709 13.17397 27823 ft 431 kts 18°
2026-05-06 21:41 50.37595 13.18902 27835 ft 444 kts 18°
2026-05-06 21:42 50.40570 13.20454 27830 ft 455 kts 18°
2026-05-06 21:42 50.43584 13.22030 27831 ft 459 kts 18°
2026-05-06 21:42 50.46623 13.23623 27828 ft 460 kts 18°
2026-05-06 21:42 50.49660 13.25219 27827 ft 461 kts 18°
2026-05-06 21:43 50.52700 13.26819 27822 ft 461 kts 18°
2026-05-06 21:43 50.55736 13.28420 27822 ft 461 kts 18°
2026-05-06 21:43 50.58781 13.30032 27820 ft 461 kts 18°
2026-05-06 21:43 50.61824 13.31649 27822 ft 461 kts 18°
2026-05-06 21:44 50.64863 13.33261 27824 ft 462 kts 18°
2026-05-06 21:44 50.67911 13.34873 27825 ft 462 kts 17°
2026-05-06 21:44 50.70957 13.36481 27827 ft 462 kts 17°
2026-05-06 21:44 50.74008 13.38094 27827 ft 462 kts 17°
2026-05-06 21:45 50.77055 13.39712 27825 ft 462 kts 17°
2026-05-06 21:45 50.80097 13.41331 27824 ft 462 kts 17°
2026-05-06 21:45 50.83140 13.42952 27819 ft 462 kts 17°
2026-05-06 21:45 50.86188 13.44579 27814 ft 462 kts 17°
2026-05-06 21:46 50.89230 13.46209 27815 ft 462 kts 17°
2026-05-06 21:46 50.92273 13.47838 27813 ft 462 kts 16°
2026-05-06 21:46 50.95389 13.49031 27810 ft 459 kts
2026-05-06 21:46 50.98540 13.49869 27808 ft 459 kts
2026-05-06 21:47 51.01692 13.50710 27800 ft 459 kts
2026-05-06 21:47 51.04841 13.51556 27806 ft 459 kts
2026-05-06 21:47 51.07995 13.52406 27805 ft 459 kts
2026-05-06 21:47 51.11147 13.53257 27808 ft 459 kts
2026-05-06 21:48 51.14296 13.54110 27793 ft 459 kts
2026-05-06 21:48 51.17444 13.54960 27797 ft 459 kts
2026-05-06 21:48 51.20595 13.55808 27808 ft 459 kts
2026-05-06 21:48 51.23737 13.56658 27180 ft 459 kts
2026-05-06 21:49 51.26910 13.57518 26113 ft 466 kts
2026-05-06 21:49 51.30128 13.58398 25111 ft 471 kts
2026-05-06 21:49 51.33369 13.59288 24140 ft 474 kts
2026-05-06 21:49 51.36627 13.60181 23175 ft 475 kts
2026-05-06 21:50 51.39885 13.61067 22084 ft 476 kts
2026-05-06 21:50 51.43151 13.61956 21031 ft 476 kts
2026-05-06 21:50 51.46415 13.62847 20021 ft 475 kts
2026-05-06 21:50 51.49669 13.63739 19102 ft 474 kts
2026-05-06 21:51 51.52892 13.64617 18413 ft 466 kts
2026-05-06 21:51 51.56082 13.64787 17679 ft 456 kts 353°
2026-05-06 21:51 51.58138 13.64239 17154 ft 450 kts 343°
2026-05-06 21:51 51.61980 13.61836 16140 ft 440 kts 333°
2026-05-06 21:52 51.64750 13.59808 15389 ft 435 kts 334°
2026-05-06 21:52 51.67491 13.57797 14662 ft 430 kts 334°
2026-05-06 21:52 51.70197 13.55805 13951 ft 426 kts 334°
2026-05-06 21:52 51.72833 13.53862 13181 ft 407 kts 334°
2026-05-06 21:53 51.74572 13.52580 12652 ft 405 kts 334°
2026-05-06 21:53 51.77095 13.50722 11887 ft 403 kts 334°
2026-05-06 21:53 51.79636 13.48849 11126 ft 400 kts 334°
2026-05-06 21:53 51.82177 13.46974 10705 ft 389 kts 334°
2026-05-06 21:54 51.84557 13.45218 10464 ft 374 kts 334°
2026-05-06 21:54 51.86914 13.43478 10230 ft 360 kts 334°
2026-05-06 21:54 51.89152 13.41823 9987 ft 348 kts 333°
2026-05-06 21:54 51.91304 13.40225 9757 ft 330 kts 333°
2026-05-06 21:55 51.93280 13.38762 9629 ft 304 kts 333°
2026-05-06 21:55 51.95160 13.37367 9496 ft 292 kts 333°
2026-05-06 21:55 51.96986 13.36003 9196 ft 287 kts 333°
2026-05-06 21:55 51.98796 13.34647 8843 ft 285 kts 333°
2026-05-06 21:56 52.00588 13.33302 8473 ft 283 kts 333°
2026-05-06 21:56 52.02370 13.31964 8115 ft 281 kts 333°
2026-05-06 21:56 52.04144 13.30636 7737 ft 279 kts 333°
2026-05-06 21:56 52.05901 13.29323 7370 ft 277 kts 334°
2026-05-06 21:57 52.07647 13.28016 7003 ft 275 kts 334°
2026-05-06 21:57 52.09382 13.26718 6643 ft 273 kts 334°
2026-05-06 21:57 52.11102 13.25428 6280 ft 272 kts 334°
2026-05-06 21:57 52.12811 13.24145 5878 ft 270 kts 334°
2026-05-06 21:58 52.14509 13.22868 5484 ft 268 kts 334°
2026-05-06 21:58 52.16198 13.21598 5083 ft 267 kts 334°
2026-05-06 21:58 52.17881 13.20334 4681 ft 266 kts 334°
2026-05-06 21:58 52.19556 13.19089 4262 ft 264 kts 336°
2026-05-06 21:59 52.21226 13.17962 4084 ft 253 kts 338°
2026-05-06 21:59 52.22827 13.16943 3957 ft 242 kts 338°
2026-05-06 21:59 52.24363 13.15984 3839 ft 231 kts 339°
2026-05-06 21:59 52.25890 13.15505 3661 ft 222 kts
2026-05-06 22:00 52.27182 13.16594 3405 ft 218 kts 51°
2026-05-06 22:00 52.27872 13.18766 3093 ft 217 kts 69°
2026-05-06 22:00 52.28401 13.21052 3005 ft 215 kts 70°
2026-05-06 22:00 52.28921 13.23342 3009 ft 211 kts 69°
2026-05-06 22:01 52.29438 13.25517 2919 ft 202 kts 69°
2026-05-06 22:01 52.29944 13.27628 2718 ft 196 kts 69°
2026-05-06 22:01 52.30432 13.29656 2453 ft 186 kts 68°
2026-05-06 22:01 52.30885 13.31547 2208 ft 173 kts 68°
2026-05-06 22:02 52.31305 13.33296 1974 ft 159 kts 68°
2026-05-06 22:02 52.31689 13.34901 1795 ft 142 kts 68°
2026-05-06 22:02 52.32037 13.36354 1586 ft 134 kts 68°
2026-05-06 22:02 52.32373 13.37759 1410 ft 131 kts 67°
2026-05-06 22:03 52.32705 13.39143 1219 ft 131 kts 67°
2026-05-06 22:03 52.33034 13.40521 1025 ft 130 kts 68°
2026-05-06 22:03 52.33361 13.41893 836 ft 130 kts 68°
2026-05-06 22:03 52.33690 13.43279 645 ft 130 kts 68°
2026-05-06 22:04 52.34022 13.44658 477 ft 130 kts 67°
2026-05-06 22:04 52.34348 13.46014 336 ft 130 kts 67°
2026-05-06 22:04 52.34676 13.47406 176 ft 128 kts 67°
2026-05-06 22:04 52.34970 13.48622 159 ft 93 kts 69°
2026-05-06 22:05 52.35146 13.49381 159 ft 57 kts 68°
2026-05-06 22:05 52.35268 13.49812 156 ft 32 kts 54°
2026-05-06 22:05 52.35394 13.50020 153 ft 22 kts 39°
2026-05-06 22:05 52.35506 13.50167 147 ft 21 kts 40°
2026-05-06 22:06 52.35604 13.50319 148 ft 19 kts 62°
2026-05-06 22:06 52.35652 13.50517 148 ft 18 kts 69°
2026-05-06 22:06 52.35698 13.50718 148 ft 20 kts 69°
2026-05-06 22:06 52.35758 13.50829 150 ft 12 kts
2026-05-06 22:07 52.35824 13.50856 152 ft 0 kts 56°
2026-05-06 22:07 52.35825 13.50857 152 ft 1 kts 48°
2026-05-06 22:07 52.35833 13.50836 152 ft 4 kts 271°
2026-05-06 22:08 52.35838 13.50794 152 ft 4 kts 296°
2026-05-06 22:08 52.35893 13.50749 153 ft 13 kts 340°
2026-05-06 22:08 52.35980 13.50694 153 ft 14 kts 339°
2026-05-06 22:08 52.36081 13.50630 153 ft 14 kts 338°
2026-05-06 22:09 52.36115 13.50653 154 ft 5 kts 67°
2026-05-06 22:09 52.36123 13.50688 154 ft 5 kts 69°
2026-05-06 22:09 52.36136 13.50743 154 ft 1 kts 69°
2026-05-06 22:09 52.36137 13.50748 155 ft 1 kts 69°
2026-05-06 22:10 52.36138 13.50751 155 ft 0 kts 69°